Location: Bergheim
(50.9593°N, 6.6400°E)
Time: 10:28:35
(UTC+02:00)

ISS - Pass Details

Date: 21 May 2021
Orbit: 417 x 422 km, 51.6° (Epoch: 13 June)

Event Time Altitude Azimuth Distance (km) Brightness Sun altitude
Rises 22:06:33 0° 258° (WSW) 2,361 0.6 -5.9°
Reaches altitude 10° 22:08:38 10° 258° (WSW) 1,499 -0.4 -6.1°
Maximum altitude 22:12:00 90° 350° (N) 425 -3.7 -6.5°
Drops below altitude 10° 22:15:23 10° 79° (E) 1,505 -1.3 -6.9°
Sets 22:17:30 0° 80° (E) 2,371 -0.3 -7.1°
